Temp
-12 -12 -12 -12 -12 -12 -12 -12 -12 -12 -12 -12 -12 -12 -13 -13 -12 -12 -12 -12 -12 -12 -12 -12 -13 -13 -13 -13 -13 -13 -13 -13 -13 -13 -13 -13 -12 -12 -12 -12 -12 -12 -13 -13 -13 -13 -13 -12 -12 -12 -12 -12 -12 -12 -12 -12 -12 -12 -12 -12 -12 -12 -12
-12 -12 -11 -11 -12 -12 -12 -12 -12 -12 -12 -12 -12 -12 -13 -13 -12 -12 -12 -12 -12 -12 -12 -12 -12 -13 -13 -13 -13 -13 -13 -13 -13 -13 -13 -13 -12 -12 -12 -12 -12 -12 -12 -13 -13 -13 -13 -13 -13 -12 -12 -12 -12 -12 -12 -12 -12 -12 -12 -12 -12 -12 -12
-12 -12 -12 -11 -12 -12 -12 -12 -12 -12 -12 -12 -12 -12 -13 -13 -12 -12 -12 -12 -12 -12 -12 -12 -12 -12 -12 -13 -13 -13 -13 -12 -12 -13 -13 -12 -12 -12 -12 -12 -12 -12 -12 -12 -12 -12 -12 -13 -13 -12 -12 -12 -12 -12 -12 -12 -12 -12 -12 -12 -12 -12 -12
-12 -12 -12 -12 -12 -12 -12 -12 -12 -12 -12 -12 -12 -12 -13 -13 -12 -12 -12 -12 -12 -12 -12 -11 -11 -12 -12 -12 -12 -12 -12 -12 -12 -12 -12 -12 -12 -12 -12 -12 -12 -12 -12 -12 -12 -12 -12 -12 -12 -12 -12 -12 -12 -12 -12 -12 -12 -12 -12 -12 -13 -12 -12
-12 -12 -12 -12 -12 -12 -12 -12 -12 -12 -12 -12 -12 -12 -13 -13 -12 -12 -12 -12 -12 -12 -12 -11 -11 -11 -12 -12 -12 -12 -12 -12 -12 -12 -12 -12 -12 -12 -12 -12 -12 -12 -12 -12 -12 -12 -12 -12 -12 -12 -12 -12 -12 -12 -12 -12 -12 -12 -12 -12 -13 -12 -12
-11 -11 -12 -12 -12 -12 -12 -12 -12 -12 -12 -12 -12 -12 -13 -13 -12 -12 -12 -12 -12 -12 -11 -11 -11 -11 -11 -11 -12 -12 -12 -12 -12 -12 -12 -12 -12 -12 -12 -12 -12 -12 -12 -12 -12 -12 -12 -12 -12 -12 -12 -12 -12 -12 -12 -12 -12 -12 -12 -12 -13 -13 -12
-11 -11 -12 -12 -12 -12 -12 -12 -12 -12 -12 -12 -12 -12 -13 -13 -12 -12 -12 -12 -12 -12 -11 -11 -11 -11 -11 -11 -12 -12 -12 -12 -12 -12 -12 -12 -12 -12 -12 -12 -12 -12 -12 -12 -12 -12 -12 -12 -12 -12 -12 -12 -12 -12 -12 -12 -12 -12 -12 -12 -13 -13 -13
-11 -11 -12 -12 -12 -12 -12 -12 -12 -12 -12 -12 -12 -13 -13 -12 -12 -12 -12 -12 -12 -11 -11 -11 -11 -11 -11 -11 -12 -12 -12 -12 -12 -12 -12 -12 -12 -12 -12 -12 -12 -12 -12 -12 -12 -12 -12 -13 -12 -12 -12 -12 -12 -12 -12 -12 -12 -12 -12 -12 -13 -13 -13
-11 -12 -12 -12 -12 -12 -12 -12 -12 -12 -12 -12 -12 -13 -13 -12 -12 -12 -12 -12 -12 -11 -11 -11 -11 -11 -11 -11 -12 -12 -12 -12 -12 -12 -11 -11 -11 -12 -12 -12 -12 -12 -12 -12 -12 -12 -12 -13 -13 -13 -12 -12 -12 -12 -12 -12 -12 -12 -12 -12 -12 -13 -13
-12 -12 -12 -12 -12 -12 -12 -12 -12 -12 -12 -12 -13 -13 -13 -12 -12 -12 -12 -12 -12 -11 -11 -11 -11 -11 -11 -11 -12 -12 -12 -12 -12 -12 -11 -11 -11 -11 -12 -12 -12 -11 -12 -12 -11 -11 -12 -13 -13 -12 -12 -12 -12 -12 -12 -12 -12 -12 -12 -12 -12 -13 -13
-12 -12 -12 -12 -12 -13 -13 -12 -12 -12 -12 -12 -13 -13 -13 -12 -12 -12 -12 -12 -11 -11 -11 -11 -11 -11 -11 -11 -12 -12 -12 -12 -12 -12 -12 -12 -12 -12 -12 -12 -12 -11 -11 -11 -12 -11 -11 -12 -12 -12 -12 -12 -12 -12 -12 -12 -12 -12 -12 -12 -12 -13 -13
-12 -12 -12 -13 -12 -13 -13 -13 -12 -13 -12 -13 -13 -13 -13 -12 -12 -12 -12 -11 -11 -11 -11 -11 -11 -11 -11 -11 -12 -12 -12 -12 -12 -12 -12 -12 -12 -12 -12 -12 -11 -11 -11 -11 -11 -11 -11 -11 -12 -12 -12 -12 -12 -12 -12 -12 -12 -12 -13 -13 -13 -13 -13
-12 -12 -13 -13 -12 -13 -13 -13 -13 -13 -13 -13 -13 -13 -13 -12 -12 -12 -12 -11 -11 -11 -11 -11 -11 -11 -11 -12 -12 -12 -12 -12 -12 -12 -12 -12 -12 -12 -12 -12 -11 -11 -11 -11 -11 -11 -11 -11 -12 -11 -11 -11 -12 -12 -12 -12 -12 -12 -12 -13 -13 -13 -13
-12 -13 -13 -13 -13 -13 -13 -13 -13 -13 -13 -13 -13 -13 -13 -12 -12 -12 -12 -12 -11 -11 -11 -11 -11 -11 -11 -12 -12 -12 -12 -12 -12 -12 -12 -12 -12 -12 -12 -12 -11 -11 -11 -11 -11 -11 -11 -11 -11 -11 -11 -11 -12 -12 -12 -12 -12 -12 -12 -13 -13 -13 -13
-13 -13 -13 -13 -13 -13 -13 -13 -13 -13 -13 -13 -13 -13 -13 -12 -12 -12 -12 -12 -11 -11 -11 -11 -11 -11 -12 -12 -12 -12 -12 -12 -12 -12 -12 -12 -12 -12 -12 -11 -11 -11 -11 -11 -11 -11 -11 -11 -11 -11 -11 -11 -11 -11 -12 -12 -12 -12 -12 -13 -13 -13 -13
-13 -13 -13 -13 -13 -13 -13 -13 -13 -13 -13 -13 -13 -13 -13 -12 -12 -12 -12 -12 -11 -11 -11 -11 -11 -11 -11 -12 -12 -12 -12 -12 -12 -12 -12 -12 -11 -11 -11 -11 -11 -11 -11 -11 -11 -11 -11 -11 -11 -11 -11 -11 -11 -11 -12 -12 -12 -12 -12 -12 -13 -13 -13
-13 -13 -13 -13 -13 -13 -13 -13 -13 -13 -13 -13 -13 -13 -12 -12 -12 -12 -12 -12 -12 -12 -11 -11 -11 -11 -11 -11 -12 -12 -12 -12 -12 -12 -12 -12 -11 -11 -11 -11 -11 -11 -11 -11 -11 -11 -11 -11 -11 -11 -11 -11 -11 -11 -11 -12 -12 -12 -12 -12 -12 -13 -13
-13 -13 -13 -13 -13 -13 -13 -13 -13 -13 -13 -13 -13 -13 -12 -12 -12 -12 -12 -12 -12 -12 -12 -11 -11 -11 -11 -11 -12 -12 -12 -12 -12 -12 -12 -12 -12 -11 -12 -12 -11 -11 -11 -11 -11 -11 -11 -11 -11 -11 -11 -11 -11 -11 -11 -12 -12 -12 -12 -12 -12 -12 -13
-13 -13 -13 -13 -13 -13 -13 -13 -13 -13 -13 -13 -13 -12 -12 -12 -12 -12 -12 -12 -12 -12 -12 -12 -11 -11 -11 -11 -12 -12 -12 -12 -12 -12 -12 -12 -12 -12 -12 -12 -12 -12 -12 -12 -11 -11 -11 -11 -11 -11 -11 -11 -11 -11 -11 -12 -12 -12 -12 -12 -13 -13 -13
-13 -13 -13 -13 -13 -13 -13 -13 -13 -13 -13 -13 -13 -12 -12 -12 -12 -12 -12 -12 -12 -12 -12 -12 -12 -11 -11 -12 -12 -12 -12 -12 -12 -12 -12 -12 -12 -12 -12 -12 -12 -12 -12 -12 -12 -12 -12 -11 -11 -11 -11 -11 -11 -11 -12 -12 -12 -12 -12 -13 -13 -13 -13
-13 -13 -13 -13 -13 -13 -13 -13 -13 -13 -13 -13 -13 -12 -12 -12 -12 -12 -12 -12 -12 -12 -12 -12 -12 -12 -11 -12 -12 -12 -12 -12 -12 -12 -12 -12 -12 -12 -12 -12 -12 -12 -12 -12 -12 -12 -12 -12 -12 -12 -12 -12 -12 -12 -12 -12 -12 -12 -13 -13 -13 -13 -13
-13 -13 -13 -13 -13 -13 -13 -13 -13 -13 -13 -13 -12 -12 -12 -12 -12 -12 -12 -12 -12 -12 -12 -12 -12 -12 -12 -12 -12 -12 -12 -12 -12 -12 -12 -12 -12 -12 -12 -12 -12 -12 -12 -12 -12 -12 -12 -12 -12 -12 -12 -12 -12 -12 -13 -13 -13 -13 -13 -13 -13 -13 -13
-13 -13 -13 -13 -13 -13 -13 -13 -13 -13 -13 -13 -12 -12 -12 -12 -12 -11 -11 -12 -12 -12 -12 -12 -12 -12 -12 -11 -12 -12 -12 -12 -12 -12 -12 -12 -12 -12 -12 -12 -12 -12 -12 -12 -12 -12 -12 -12 -12 -12 -12 -12 -13 -13 -13 -13 -13 -13 -13 -13 -13 -13 -13
-13 -13 -13 -13 -13 -13 -13 -13 -13 -13 -13 -12 -12 -12 -11 -12 -12 -11 -11 -11 -12 -12 -12 -12 -12 -12 -12 -12 -12 -12 -12 -12 -12 -12 -12 -12 -12 -12 -12 -12 -12 -12 -12 -12 -12 -12 -12 -12 -12 -12 -13 -13 -13 -13 -13 -13 -14 -14 -14 -14 -14 -14 -14
-13 -13 -13 -13 -13 -13 -13 -13 -13 -13 -13 -12 -12 -11 -11 -12 -12 -11 -11 -11 -12 -12 -12 -12 -12 -12 -12 -12 -12 -12 -12 -12 -12 -12 -12 -12 -12 -12 -12 -12 -12 -12 -12 -12 -12 -12 -12 -13 -13 -13 -13 -13 -13 -13 -13 -14 -14 -14 -14 -14 -14 -14 -14
-13 -13 -13 -12 -13 -13 -13 -13 -13 -13 -12 -12 -12 -11 -11 -11 -12 -12 -11 -11 -12 -12 -12 -12 -12 -12 -12 -13 -13 -12 -12 -12 -12 -12 -12 -12 -12 -12 -12 -12 -12 -12 -13 -12 -12 -12 -12 -13 -13 -13 -13 -13 -14 -14 -14 -14 -14 -14 -14 -14 -15 -15 -15
-13 -13 -13 -12 -12 -12 -13 -13 -13 -13 -12 -12 -11 -11 -11 -11 -11 -12 -11 -12 -12 -12 -12 -12 -12 -12 -12 -13 -13 -12 -12 -12 -12 -12 -12 -12 -12 -12 -12 -12 -12 -12 -13 -13 -13 -12 -13 -13 -13 -14 -14 -14 -14 -14 -14 -15 -15 -15 -15 -15 -15 -15 -15
-13 -13 -13 -12 -12 -12 -12 -12 -12 -12 -12 -12 -11 -11 -11 -11 -11 -11 -11 -12 -12 -12 -12 -12 -12 -12 -12 -13 -13 -12 -12 -12 -12 -12 -12 -12 -12 -12 -12 -12 -12 -12 -13 -13 -13 -13 -13 -13 -14 -14 -14 -14 -14 -15 -15 -15 -15 -15 -15 -15 -16 -16 -16
-13 -13 -13 -12 -12 -12 -12 -12 -12 -12 -12 -11 -11 -11 -11 -11 -11 -11 -12 -12 -12 -12 -12 -12 -12 -12 -12 -13 -13 -12 -12 -12 -12 -12 -12 -12 -12 -12 -12 -12 -12 -13 -13 -13 -13 -13 -13 -14 -14 -14 -15 -15 -15 -15 -15 -15 -15 -16 -16 -16 -16 -16 -16
-13 -14 -13 -12 -12 -12 -12 -12 -12 -12 -12 -11 -11 -11 -11 -12 -11 -12 -12 -12 -12 -12 -12 -12 -12 -12 -12 -13 -13 -12 -12 -12 -12 -12 -12 -12 -12 -12 -12 -13 -13 -13 -13 -13 -13 -13 -14 -14 -14 -15 -15 -15 -15 -15 -15 -15 -16 -16 -16 -16 -16 -16 -16
-13 -13 -13 -13 -12 -12 -12 -12 -12 -12 -12 -11 -11 -11 -12 -12 -12 -12 -12 -12 -12 -12 -12 -12 -12 -12 -12 -13 -13 -12 -12 -12 -12 -12 -12 -12 -12 -12 -13 -13 -13 -13 -13 -13 -14 -14 -14 -14 -14 -15 -15 -15 -15 -15 -15 -16 -16 -16 -16 -16 -16 -16 -16
-13 -13 -14 -13 -12 -12 -12 -12 -12 -12 -11 -11 -11 -12 -12 -12 -12 -12 -12 -12 -12 -12 -12 -12 -12 -12 -12 -13 -12 -12 -12 -12 -13 -12 -12 -12 -12 -12 -13 -13 -13 -13 -13 -14 -14 -14 -14 -14 -15 -15 -15 -15 -15 -15 -15 -16 -16 -16 -16 -16 -16 -16 -16
-13 -13 -14 -13 -12 -12 -12 -12 -12 -12 -11 -11 -11 -12 -12 -12 -12 -12 -12 -12 -12 -12 -12 -12 -12 -12 -12 -12 -12 -12 -12 -13 -13 -13 -12 -12 -12 -12 -13 -13 -13 -13 -13 -14 -14 -14 -15 -15 -15 -15 -16 -15 -15 -15 -16 -16 -16 -16 -17 -16 -16 -17 -17
-13 -13 -13 -13 -12 -12 -12 -12 -12 -12 -11 -11 -12 -12 -12 -12 -12 -12 -12 -12 -12 -12 -12 -12 -12 -12 -12 -12 -12 -12 -12 -13 -13 -13 -13 -13 -13 -13 -13 -13 -13 -13 -14 -14 -14 -15 -15 -15 -15 -15 -16 -15 -15 -16 -16 -16 -16 -17 -17 -17 -17 -17 -17
-13 -13 -13 -12 -12 -12 -12 -12 -12 -12 -11 -11 -11 -12 -12 -12 -12 -12 -12 -12 -12 -12 -12 -12 -12 -12 -12 -12 -12 -12 -12 -13 -13 -13 -13 -13 -13 -13 -13 -13 -14 -14 -14 -14 -15 -15 -15 -15 -16 -16 -16 -16 -16 -16 -16 -16 -16 -17 -17 -17 -17 -17 -17
-13 -13 -13 -12 -12 -12 -12 -12 -12 -12 -12 -12 -12 -12 -12 -12 -12 -12 -12 -12 -12 -12 -12 -12 -12 -12 -12 -12 -12 -12 -13 -13 -13 -13 -13 -13 -13 -13 -13 -14 -14 -14 -14 -15 -15 -15 -15 -16 -16 -16 -16 -16 -16 -16 -16 -16 -17 -17 -17 -17 -17 -17 -17
-13 -13 -13 -13 -12 -12 -12 -12 -12 -12 -12 -12 -12 -12 -12 -12 -12 -12 -12 -12 -12 -12 -12 -12 -12 -12 -12 -12 -12 -12 -13 -13 -13 -13 -13 -13 -13 -13 -14 -14 -14 -14 -14 -15 -15 -15 -15 -16 -16 -16 -16 -16 -16 -16 -16 -16 -17 -17 -17 -17 -17 -17 -17
Height
5822 5825 5827 5829 5831 5835 5838 5840 5841 5841 5841 5842 5843 5843 5844 5843 5843 5843 5842 5840 5839 5838 5837 5836 5836 5836 5836 5836 5836 5835 5834 5833 5832 5831 5830 5829 5828 5827 5826 5824 5822 5820 5818 5816 5814 5812 5810 5809 5809 5807 5807 5807 5807 5806 5806 5806 5806 5806 5806 5806 5804 5802 5800
5818 5821 5823 5825 5828 5833 5835 5837 5838 5839 5839 5840 5841 5842 5842 5842 5841 5840 5839 5838 5837 5836 5835 5834 5834 5834 5834 5834 5834 5833 5832 5831 5831 5830 5829 5828 5827 5825 5823 5822 5820 5819 5817 5815 5813 5811 5809 5808 5806 5804 5803 5804 5804 5804 5803 5803 5804 5804 5804 5804 5802 5801 5799
5814 5817 5819 5822 5827 5830 5832 5834 5836 5837 5837 5838 5840 5840 5840 5839 5838 5838 5837 5836 5835 5834 5833 5832 5832 5832 5832 5832 5832 5831 5830 5830 5829 5829 5828 5827 5825 5823 5822 5820 5819 5817 5816 5813 5811 5809 5808 5807 5805 5802 5800 5800 5800 5801 5801 5800 5800 5801 5801 5801 5800 5798 5796
5811 5813 5815 5820 5825 5828 5830 5832 5833 5834 5835 5837 5838 5838 5838 5837 5836 5835 5834 5833 5833 5832 5831 5830 5830 5830 5830 5830 5829 5829 5829 5828 5828 5828 5827 5825 5824 5822 5820 5819 5817 5815 5814 5812 5809 5807 5806 5804 5802 5801 5800 5798 5797 5797 5798 5798 5797 5797 5798 5798 5797 5795 5794
5807 5810 5813 5819 5823 5826 5828 5830 5831 5832 5833 5835 5836 5836 5835 5834 5833 5833 5832 5831 5830 5830 5829 5828 5828 5828 5828 5828 5828 5827 5828 5828 5827 5826 5825 5824 5822 5821 5819 5817 5815 5813 5811 5809 5807 5805 5803 5801 5799 5799 5799 5797 5795 5795 5795 5795 5795 5795 5795 5795 5794 5792 5791
5805 5808 5811 5816 5820 5823 5826 5827 5828 5830 5831 5832 5833 5833 5832 5832 5831 5830 5829 5828 5828 5827 5827 5826 5826 5826 5826 5826 5826 5826 5827 5827 5826 5824 5823 5822 5821 5819 5818 5816 5814 5812 5810 5807 5805 5804 5802 5799 5797 5796 5796 5796 5794 5793 5793 5793 5794 5793 5793 5793 5792 5790 5789
5803 5805 5809 5813 5817 5820 5823 5825 5826 5828 5829 5830 5830 5830 5829 5829 5828 5827 5827 5826 5825 5825 5825 5824 5824 5824 5824 5824 5825 5825 5826 5825 5824 5823 5822 5821 5820 5818 5816 5814 5813 5811 5808 5806 5803 5802 5800 5798 5795 5794 5793 5793 5792 5791 5791 5792 5792 5792 5792 5791 5790 5788 5786
5802 5803 5807 5810 5814 5818 5820 5822 5824 5825 5826 5827 5827 5827 5827 5826 5825 5825 5824 5823 5823 5822 5822 5822 5822 5822 5822 5823 5824 5824 5824 5822 5821 5821 5820 5820 5818 5817 5815 5813 5811 5809 5807 5804 5801 5800 5799 5796 5793 5792 5791 5790 5790 5789 5789 5790 5790 5789 5789 5789 5788 5786 5785
5800 5802 5804 5807 5811 5815 5817 5819 5821 5823 5824 5824 5824 5824 5824 5823 5822 5822 5821 5820 5820 5820 5820 5820 5820 5820 5821 5821 5822 5822 5821 5820 5820 5819 5819 5818 5817 5815 5813 5811 5810 5807 5805 5803 5799 5797 5796 5794 5791 5790 5789 5787 5787 5787 5787 5788 5787 5787 5787 5787 5786 5785 5783
5798 5800 5802 5805 5808 5811 5814 5816 5819 5820 5821 5821 5822 5821 5821 5820 5819 5819 5818 5818 5818 5818 5818 5818 5818 5819 5819 5820 5821 5820 5819 5819 5818 5817 5817 5816 5815 5814 5812 5810 5808 5806 5804 5801 5798 5795 5794 5792 5789 5787 5785 5784 5785 5785 5785 5785 5785 5785 5785 5784 5784 5782 5781
5795 5798 5800 5802 5805 5807 5811 5814 5816 5817 5818 5818 5818 5818 5817 5817 5816 5816 5816 5815 5816 5816 5816 5816 5816 5817 5817 5818 5819 5818 5817 5817 5817 5816 5815 5814 5813 5812 5810 5808 5806 5805 5802 5800 5798 5794 5791 5790 5787 5784 5782 5782 5783 5783 5783 5784 5783 5783 5783 5782 5781 5780 5778
5791 5795 5798 5800 5801 5805 5808 5811 5813 5815 5815 5816 5815 5815 5814 5814 5813 5813 5813 5813 5813 5813 5814 5814 5814 5815 5815 5816 5816 5816 5816 5815 5815 5814 5813 5812 5811 5810 5809 5807 5805 5804 5801 5799 5797 5794 5790 5789 5786 5783 5782 5782 5781 5782 5782 5782 5782 5781 5780 5779 5778 5777 5775
5787 5793 5796 5797 5799 5802 5805 5808 5810 5812 5812 5813 5812 5812 5811 5811 5811 5811 5811 5811 5811 5811 5811 5812 5812 5813 5813 5814 5815 5814 5814 5813 5812 5812 5811 5810 5810 5809 5808 5806 5804 5802 5800 5798 5796 5793 5790 5788 5785 5783 5782 5781 5781 5781 5781 5781 5780 5778 5777 5777 5775 5774 5773
5785 5790 5792 5794 5796 5799 5802 5805 5807 5809 5809 5809 5809 5809 5808 5808 5808 5808 5808 5808 5809 5809 5809 5810 5810 5811 5811 5812 5813 5813 5812 5811 5810 5809 5809 5808 5808 5807 5806 5805 5803 5801 5799 5796 5794 5792 5790 5788 5785 5782 5781 5780 5779 5779 5779 5779 5778 5777 5776 5775 5774 5772 5771
5782 5787 5789 5791 5794 5797 5800 5803 5804 5805 5806 5806 5806 5806 5805 5805 5805 5805 5806 5806 5806 5807 5807 5808 5808 5809 5809 5810 5811 5811 5811 5809 5808 5807 5807 5806 5805 5805 5804 5803 5802 5800 5798 5795 5793 5791 5789 5787 5785 5782 5780 5779 5778 5777 5777 5777 5776 5775 5774 5774 5773 5771 5770
5780 5783 5785 5788 5791 5794 5797 5800 5801 5802 5803 5803 5803 5803 5803 5803 5803 5803 5803 5803 5804 5805 5805 5805 5806 5806 5807 5808 5808 5809 5809 5807 5806 5806 5805 5805 5804 5803 5802 5801 5800 5798 5797 5795 5792 5790 5788 5786 5784 5782 5780 5778 5776 5775 5775 5774 5773 5772 5772 5772 5772 5770 5769
5777 5779 5782 5785 5789 5792 5794 5796 5798 5799 5800 5800 5800 5800 5800 5800 5800 5800 5800 5801 5802 5803 5803 5803 5803 5804 5804 5805 5806 5806 5806 5806 5805 5804 5804 5803 5802 5801 5800 5799 5798 5796 5795 5793 5791 5789 5787 5785 5783 5781 5779 5777 5775 5774 5773 5771 5770 5769 5769 5769 5769 5768 5767
5773 5775 5778 5782 5786 5788 5791 5793 5795 5796 5797 5797 5797 5798 5798 5798 5798 5798 5798 5799 5800 5800 5800 5801 5801 5802 5802 5803 5803 5803 5804 5804 5803 5802 5802 5801 5800 5799 5798 5796 5796 5795 5793 5792 5790 5787 5785 5783 5781 5779 5777 5775 5774 5772 5771 5770 5768 5767 5767 5767 5767 5766 5764
5768 5771 5774 5778 5782 5785 5787 5790 5792 5793 5794 5795 5795 5795 5795 5795 5795 5795 5796 5797 5798 5798 5798 5799 5799 5800 5800 5800 5800 5801 5801 5801 5801 5800 5799 5798 5797 5797 5796 5794 5793 5793 5791 5790 5788 5785 5783 5781 5779 5777 5775 5773 5772 5770 5769 5768 5766 5765 5765 5764 5764 5763 5761
5764 5767 5771 5775 5778 5781 5784 5787 5789 5790 5791 5792 5792 5793 5793 5793 5793 5793 5793 5794 5795 5796 5796 5797 5797 5798 5798 5798 5798 5798 5798 5798 5797 5797 5796 5796 5795 5795 5793 5792 5791 5790 5789 5787 5786 5783 5781 5779 5777 5775 5773 5771 5770 5768 5767 5766 5764 5763 5762 5761 5760 5759 5758
5760 5764 5768 5772 5775 5778 5781 5783 5786 5787 5788 5789 5790 5790 5790 5790 5790 5790 5791 5792 5793 5793 5794 5794 5795 5796 5796 5796 5796 5795 5795 5795 5795 5794 5794 5793 5793 5793 5791 5790 5789 5787 5786 5784 5783 5781 5779 5777 5775 5773 5771 5769 5767 5766 5764 5763 5762 5761 5760 5758 5757 5756 5754
5758 5762 5766 5769 5772 5775 5777 5780 5782 5784 5785 5786 5787 5787 5787 5787 5787 5787 5788 5789 5790 5791 5791 5792 5792 5793 5793 5794 5794 5793 5794 5793 5793 5792 5791 5791 5791 5790 5789 5788 5786 5785 5783 5782 5780 5778 5777 5774 5772 5770 5768 5766 5764 5763 5761 5760 5759 5758 5757 5756 5755 5753 5751
5758 5761 5764 5767 5770 5772 5774 5776 5778 5780 5782 5783 5783 5784 5784 5784 5784 5784 5784 5785 5787 5787 5788 5789 5789 5791 5791 5791 5792 5792 5792 5791 5790 5789 5788 5788 5788 5788 5786 5785 5784 5783 5781 5780 5778 5776 5774 5772 5770 5768 5766 5764 5762 5760 5758 5757 5756 5755 5754 5753 5752 5750 5748
5757 5760 5763 5765 5767 5769 5771 5773 5775 5777 5778 5779 5780 5780 5780 5781 5782 5782 5781 5782 5783 5785 5785 5786 5787 5788 5789 5789 5789 5790 5789 5788 5787 5786 5786 5785 5785 5785 5784 5783 5782 5780 5779 5777 5776 5774 5771 5769 5767 5765 5763 5762 5760 5758 5756 5755 5753 5752 5751 5750 5748 5747 5745
5755 5759 5761 5763 5764 5766 5768 5770 5772 5774 5775 5776 5776 5776 5776 5778 5780 5781 5780 5780 5781 5782 5783 5784 5784 5785 5786 5787 5787 5787 5787 5786 5784 5783 5783 5783 5782 5782 5781 5780 5779 5777 5776 5774 5773 5771 5769 5767 5765 5763 5761 5759 5757 5756 5754 5752 5751 5749 5748 5747 5745 5744 5742
5752 5757 5760 5761 5762 5764 5765 5767 5768 5770 5771 5772 5772 5773 5774 5775 5777 5779 5779 5778 5779 5780 5781 5781 5782 5782 5784 5784 5784 5784 5784 5783 5781 5780 5780 5780 5779 5779 5779 5778 5776 5775 5773 5772 5770 5768 5766 5764 5762 5760 5758 5756 5755 5753 5751 5749 5748 5746 5745 5744 5742 5741 5739
5749 5753 5757 5759 5760 5761 5762 5763 5765 5766 5768 5769 5769 5769 5770 5771 5774 5776 5776 5777 5777 5778 5778 5779 5779 5779 5781 5781 5781 5782 5781 5780 5778 5777 5777 5777 5777 5776 5776 5775 5774 5772 5770 5769 5767 5765 5763 5761 5759 5757 5756 5754 5752 5750 5748 5746 5745 5743 5741 5740 5739 5737 5736
5744 5749 5754 5757 5758 5758 5759 5760 5761 5763 5765 5765 5766 5766 5767 5769 5771 5773 5774 5774 5774 5775 5775 5775 5775 5776 5778 5779 5779 5779 5778 5777 5775 5774 5774 5774 5774 5773 5773 5772 5771 5769 5767 5766 5764 5762 5760 5758 5756 5755 5753 5751 5749 5747 5745 5743 5742 5740 5738 5737 5735 5734 5732
5740 5746 5751 5754 5756 5756 5756 5757 5758 5760 5762 5762 5763 5765 5766 5768 5771 5773 5773 5772 5772 5772 5772 5772 5772 5774 5775 5776 5776 5776 5775 5774 5772 5770 5770 5771 5770 5770 5770 5769 5768 5766 5764 5762 5761 5759 5757 5755 5753 5752 5750 5748 5746 5744 5743 5741 5740 5738 5737 5736 5734 5732 5730
5738 5742 5747 5751 5753 5753 5753 5754 5755 5757 5759 5760 5762 5763 5764 5767 5769 5771 5771 5771 5769 5769 5770 5770 5770 5771 5772 5772 5773 5773 5772 5770 5768 5767 5767 5767 5767 5766 5766 5765 5764 5763 5761 5759 5757 5756 5754 5752 5750 5749 5747 5746 5744 5742 5741 5739 5738 5736 5735 5733 5731 5729 5727
5736 5739 5744 5747 5749 5750 5750 5751 5752 5754 5756 5758 5759 5760 5763 5766 5767 5768 5768 5768 5767 5767 5767 5767 5767 5768 5769 5769 5769 5769 5768 5767 5765 5764 5763 5764 5763 5763 5763 5762 5760 5759 5757 5756 5754 5752 5750 5748 5746 5745 5744 5742 5740 5739 5737 5736 5734 5732 5731 5729 5727 5724 5722
5734 5737 5741 5744 5746 5747 5747 5748 5750 5752 5754 5756 5757 5758 5761 5764 5764 5765 5765 5765 5764 5764 5764 5764 5764 5765 5766 5766 5766 5765 5764 5763 5762 5761 5760 5760 5759 5759 5759 5758 5756 5755 5753 5752 5751 5749 5747 5745 5743 5741 5740 5738 5736 5735 5733 5731 5730 5728 5726 5724 5721 5719 5718
5732 5736 5739 5742 5743 5744 5744 5745 5747 5749 5751 5753 5754 5756 5759 5761 5761 5762 5762 5762 5761 5761 5761 5761 5761 5762 5762 5763 5763 5762 5760 5760 5759 5758 5757 5756 5755 5756 5756 5754 5752 5751 5750 5748 5747 5746 5744 5742 5740 5737 5736 5734 5732 5731 5729 5727 5725 5723 5721 5719 5717 5715 5714
5731 5735 5737 5739 5740 5740 5741 5742 5744 5746 5749 5750 5752 5753 5756 5757 5758 5758 5759 5759 5759 5758 5758 5758 5758 5758 5759 5759 5759 5758 5757 5756 5756 5755 5754 5753 5752 5752 5752 5750 5749 5747 5746 5744 5744 5743 5741 5739 5737 5734 5732 5730 5729 5727 5725 5723 5721 5719 5717 5715 5713 5711 5710
5729 5732 5735 5737 5738 5737 5738 5740 5742 5744 5746 5748 5749 5750 5751 5753 5754 5755 5755 5755 5756 5755 5755 5755 5755 5756 5756 5756 5755 5754 5753 5753 5753 5752 5751 5750 5749 5748 5747 5746 5745 5743 5741 5740 5740 5739 5737 5735 5733 5731 5729 5727 5725 5723 5721 5719 5718 5715 5713 5711 5709 5708 5706
5727 5730 5732 5735 5736 5735 5735 5737 5739 5741 5743 5745 5746 5747 5748 5749 5751 5751 5752 5753 5753 5753 5752 5752 5753 5753 5752 5752 5751 5751 5750 5750 5749 5749 5748 5747 5746 5745 5743 5742 5740 5739 5737 5736 5735 5735 5733 5731 5730 5728 5726 5724 5722 5720 5718 5716 5714 5712 5710 5708 5706 5704 5702
5725 5728 5731 5733 5733 5732 5732 5734 5736 5738 5740 5741 5743 5744 5746 5747 5748 5749 5749 5750 5750 5749 5749 5749 5749 5749 5748 5748 5748 5747 5746 5746 5746 5745 5744 5743 5742 5741 5739 5737 5736 5734 5732 5731 5730 5730 5729 5727 5725 5724 5722 5720 5718 5716 5714 5712 5711 5709 5706 5704 5702 5699 5697
Wind_Speed
36 34 35 38 38 32 29 27 26 25 21 17 17 18 19 21 22 21 18 18 19 19 18 16 14 16 18 20 22 22 21 21 21 22 22 22 22 21 22 24 24 25 26 26 26 26 25 24 21 20 20 18 18 17 14 13 15 16 16 17 20 22 22
38 36 38 40 36 31 30 29 27 26 20 17 18 18 19 21 22 20 17 17 18 19 19 17 15 17 20 22 22 21 20 20 20 21 21 22 21 21 22 24 24 25 25 25 25 25 25 24 22 22 22 19 18 18 16 16 16 15 15 16 19 22 22
39 38 41 40 34 31 31 29 28 25 20 19 18 18 19 21 22 19 17 17 18 19 19 17 16 18 20 21 21 20 19 19 19 20 21 20 20 21 23 24 25 26 26 26 26 25 24 24 24 23 23 22 20 17 17 19 18 16 14 14 18 22 22
39 41 43 38 32 32 30 28 28 25 21 19 18 17 18 21 21 18 17 18 18 19 19 18 18 19 20 20 20 19 18 18 19 19 19 19 20 22 23 24 26 27 27 27 27 26 25 26 25 22 21 22 22 19 19 19 19 18 15 14 16 20 21
39 41 41 35 31 30 29 29 28 25 22 19 17 17 18 20 20 18 18 18 18 19 19 18 19 20 21 20 19 18 17 17 18 18 18 19 20 23 24 24 25 26 27 27 27 27 28 27 25 22 21 21 21 21 21 20 19 19 18 15 16 18 19
39 40 37 32 30 31 30 30 28 24 21 18 17 17 19 20 19 18 18 18 18 19 18 18 19 21 21 20 19 17 16 17 17 18 17 18 20 22 23 23 24 25 26 27 27 28 28 27 24 21 20 20 20 21 20 19 19 19 19 17 16 17 17
40 39 35 32 31 32 31 30 27 23 20 18 17 18 19 20 18 18 18 17 18 18 18 19 20 21 22 20 18 17 16 16 17 17 17 18 19 21 22 23 24 25 26 27 28 28 28 27 25 22 20 20 20 20 18 17 17 18 18 17 16 17 18
41 39 36 33 33 33 31 29 26 23 20 19 18 18 19 19 18 18 17 16 17 18 18 20 21 22 21 20 18 16 16 16 17 18 17 18 19 21 22 23 24 25 25 26 28 28 27 27 26 22 20 20 20 19 18 17 18 19 19 17 16 18 19
42 40 36 34 33 32 31 29 26 23 21 19 18 18 19 18 18 18 17 16 16 17 18 20 21 22 21 20 17 16 16 17 17 17 17 18 20 22 23 23 24 25 25 26 28 28 26 26 27 23 20 20 20 19 18 18 19 20 19 17 16 18 19
42 40 36 34 33 32 31 28 25 23 20 19 18 18 18 17 17 18 17 16 16 17 19 20 21 22 21 20 18 17 17 17 17 17 18 19 20 22 23 24 24 25 25 25 27 27 26 27 27 24 20 19 18 18 17 16 18 20 20 19 17 17 19
42 40 36 34 33 32 30 28 25 23 21 19 19 18 17 16 17 17 17 16 16 17 18 19 20 21 21 20 18 18 18 17 16 17 18 19 20 21 23 24 24 24 25 25 25 26 25 26 26 22 18 16 14 14 14 15 17 19 20 19 17 17 18
42 41 37 35 34 32 30 27 25 23 21 19 19 18 17 16 16 17 17 16 16 17 18 19 20 21 21 20 19 19 18 17 17 16 17 18 19 20 22 23 23 23 23 23 24 24 24 25 24 19 14 12 10 11 12 13 16 18 18 17 16 16 18
43 41 38 36 34 31 29 27 25 23 21 19 19 18 17 16 16 17 17 17 17 18 19 19 20 20 21 20 19 19 18 18 17 16 17 18 19 20 21 21 21 21 22 23 22 21 21 22 22 18 13 10 8 9 11 12 15 17 16 16 16 18 19
43 42 40 37 33 30 29 27 24 23 21 20 19 18 18 18 17 17 17 17 18 19 19 19 20 20 21 20 19 19 18 18 17 17 18 19 19 20 20 20 20 20 21 21 21 20 20 19 19 18 14 11 10 10 11 13 15 17 17 17 19 20 21
44 44 40 36 33 30 28 26 24 23 21 20 19 19 19 19 18 17 18 18 19 19 19 20 20 21 21 21 20 19 17 17 18 18 18 19 20 21 20 19 19 19 19 20 20 20 19 18 17 15 14 12 12 12 13 14 15 16 17 18 20 21 21
45 43 38 35 32 29 28 26 25 23 22 21 20 20 20 19 18 18 18 19 19 19 20 20 21 21 21 21 21 19 17 17 18 18 19 19 21 21 21 19 18 19 19 19 19 19 19 19 17 16 15 14 13 14 14 15 16 16 16 17 19 21 23
45 41 36 33 30 29 28 26 25 24 22 21 21 20 20 19 18 18 19 20 20 20 21 22 21 22 22 22 21 20 19 18 18 18 19 20 21 21 21 20 19 19 19 19 19 19 19 19 18 17 16 15 15 15 15 15 16 16 17 18 18 18 21
44 38 34 32 30 29 28 26 25 24 22 21 21 20 20 18 18 18 20 21 21 22 23 23 22 22 22 22 21 21 21 19 18 19 20 20 22 22 21 20 19 19 19 19 19 19 19 19 19 18 18 17 17 17 16 15 16 17 19 22 22 21 23
40 36 33 32 30 29 28 27 26 24 22 21 21 20 19 18 18 19 21 22 21 22 24 23 23 22 22 21 21 22 21 20 19 20 21 21 22 22 21 20 19 19 19 19 19 19 19 19 19 19 19 19 19 19 18 17 18 18 19 22 23 23 25
36 35 33 32 31 30 28 27 26 24 22 21 21 20 19 18 19 20 21 22 21 22 24 24 23 22 21 20 21 22 22 21 21 21 22 22 22 22 21 21 20 20 20 20 19 19 19 19 19 19 19 19 19 20 20 20 20 20 19 20 21 22 24
35 35 34 33 32 30 28 27 25 23 21 21 21 20 19 19 20 21 22 22 22 22 23 24 23 22 21 20 21 22 22 22 22 22 23 24 23 23 22 22 21 22 23 22 22 21 20 20 20 20 19 19 19 20 20 20 20 21 20 21 22 22 23
36 36 34 33 31 29 28 26 24 22 21 21 21 20 20 20 21 22 22 23 22 22 23 24 24 22 22 21 21 21 22 22 22 22 23 24 25 24 24 23 22 23 24 24 24 23 23 22 22 21 21 20 20 20 21 21 21 21 21 22 23 23 23
37 36 34 32 30 29 28 26 23 21 21 21 21 21 21 22 23 24 23 23 23 23 25 26 24 23 23 22 21 21 22 22 22 22 23 25 25 25 25 24 23 24 24 25 25 25 24 23 23 22 21 20 20 20 21 22 22 22 23 23 23 23 23
38 36 34 32 30 29 27 25 22 21 21 21 21 22 22 22 24 24 24 23 23 24 26 26 24 23 23 22 21 21 21 21 21 22 24 25 25 26 26 25 25 25 25 25 26 26 26 25 24 23 22 21 20 20 21 21 22 23 23 23 23 24 24
38 36 34 33 31 29 26 23 22 21 21 21 21 22 22 22 24 25 24 22 23 24 25 25 24 24 22 21 21 21 21 21 21 23 24 24 25 26 26 26 26 26 26 26 27 27 27 26 25 24 23 22 21 21 20 21 22 23 23 23 23 24 24
38 36 35 33 31 28 24 23 22 22 21 21 22 22 22 23 24 25 23 22 23 24 24 24 26 25 23 22 22 22 22 21 21 23 24 24 25 26 26 27 27 27 27 27 28 28 28 27 26 25 24 24 23 22 22 22 23 23 23 24 24 24 25
38 36 36 34 30 26 24 24 23 22 20 21 22 22 23 24 24 24 24 23 24 24 25 26 28 28 25 23 23 23 22 21 22 24 25 25 25 26 26 28 28 28 28 28 28 28 28 27 26 26 25 24 24 23 23 23 24 24 25 25 25 26 26
39 37 36 34 29 26 25 24 23 21 20 22 23 24 24 24 24 24 24 24 24 24 25 27 30 30 27 24 23 24 23 22 23 25 26 26 26 26 27 28 28 28 29 29 29 28 28 27 26 26 25 25 24 24 24 24 25 25 26 26 27 27 28
39 37 36 33 29 27 26 24 22 20 21 22 24 23 23 22 23 23 24 24 25 24 25 27 28 27 24 23 23 24 24 23 24 27 27 27 27 28 28 29 29 29 29 29 29 29 28 28 27 26 25 25 25 25 25 25 26 26 26 27 27 28 28
39 37 34 31 29 28 26 23 21 21 22 23 23 23 23 22 21 23 24 25 25 25 25 26 26 24 22 22 25 25 24 24 25 28 28 28 28 29 29 29 29 29 29 29 29 29 29 29 28 26 26 26 26 26 26 27 27 27 28 28 28 29 29
38 35 33 31 30 28 25 23 22 22 23 23 23 24 23 21 21 23 24 25 26 26 25 25 24 23 22 23 25 25 24 24 25 28 29 29 30 30 30 30 30 30 30 30 30 29 30 30 29 28 27 28 29 29 29 30 30 30 30 31 31 31 31
36 33 31 31 30 28 25 22 22 23 23 23 24 25 23 21 22 24 25 27 27 27 26 25 25 24 23 24 25 25 25 25 26 28 30 30 31 31 31 31 31 30 30 30 30 29 30 30 30 29 29 30 31 31 32 32 32 32 32 32 33 34 33
33 31 30 30 29 26 24 22 22 23 23 23 25 26 23 22 24 25 27 28 27 26 26 26 25 24 24 24 25 25 25 25 26 28 30 31 32 32 32 32 32 31 31 31 30 30 29 30 31 31 31 32 33 33 34 33 32 32 33 33 35 35 35
31 31 30 29 27 25 23 22 22 23 23 24 25 25 24 24 25 26 27 28 27 27 27 26 25 25 25 25 25 25 25 26 27 29 30 31 33 33 32 32 32 31 31 31 31 30 30 30 31 32 33 34 34 34 33 32 32 32 33 34 36 37 36
30 31 30 27 26 24 22 22 23 23 23 24 24 25 25 25 26 27 27 28 27 27 27 26 25 25 26 26 25 25 26 27 28 29 31 32 33 33 33 33 32 32 32 32 32 31 31 31 31 33 34 35 34 33 32 31 31 31 33 36 38 39 39
29 28 27 26 24 23 22 21 22 23 23 23 24 25 25 26 26 27 27 27 27 27 27 27 26 27 27 26 26 26 27 28 28 30 32 32 32 33 33 32 32 32 33 33 33 33 33 33 32 33 33 33 32 31 30 30 31 33 35 38 39 40 41
24 25 25 24 23 22 21 21 21 22 22 22 23 24 24 25 26 26 27 26 27 27 27 27 27 27 27 27 27 27 28 29 29 30 31 31 32 32 32 31 31 32 34 35 34 34 34 33 31 31 30 30 30 31 32 32 32 34 37 39 41 42 42
Wind_Direction
230 230 230 235 238 239 232 224 228 237 240 248 260 273 285 290 292 291 289 286 284 280 276 273 270 272 278 281 284 288 293 298 300 304 309 311 314 319 323 326 328 327 326 326 326 325 323 319 318 315 308 301 292 287 286 284 284 282 285 290 290 290 288
231 231 229 233 236 233 224 222 230 236 239 246 257 271 282 287 289 288 286 283 280 278 276 277 274 273 276 279 282 286 291 297 302 306 310 312 317 320 323 324 325 324 325 325 325 325 323 320 321 318 311 302 289 282 282 283 283 288 294 294 290 288 286
230 229 228 232 233 226 220 223 231 235 239 245 256 270 278 285 287 285 283 279 277 276 276 278 279 277 278 279 281 286 292 298 303 308 311 313 318 320 321 323 322 323 325 326 326 325 325 324 323 320 313 305 294 282 278 279 279 283 293 298 292 288 285
228 225 226 230 227 220 219 225 231 235 238 245 257 269 276 283 286 284 280 276 276 276 277 283 285 282 280 279 281 287 294 300 307 310 311 314 317 319 320 322 323 325 327 329 328 327 327 326 324 319 312 305 299 287 276 275 276 277 286 299 295 288 284
219 219 224 226 218 215 219 226 231 234 239 247 259 267 275 282 284 281 276 275 276 277 281 286 287 284 281 281 284 289 296 304 309 309 309 313 317 318 319 321 324 328 330 332 332 331 330 325 319 312 306 302 297 288 277 273 273 276 285 297 294 288 284
213 217 221 216 210 214 221 226 230 235 241 250 260 266 274 280 281 277 272 273 276 279 284 287 286 283 282 283 286 291 299 305 307 305 306 312 316 317 318 321 324 326 329 330 331 332 331 325 317 309 303 299 296 289 278 272 271 274 284 294 292 286 282
212 216 216 209 209 216 222 227 231 236 243 252 259 265 273 279 277 272 269 272 275 280 285 286 285 283 283 284 288 293 301 304 303 302 307 313 316 316 318 321 322 324 326 327 327 330 329 324 320 313 302 294 291 288 278 270 268 273 284 292 288 281 279
213 214 211 206 210 217 222 228 232 238 246 252 258 265 273 276 271 266 267 271 275 281 285 286 285 283 283 285 288 294 299 300 300 303 309 315 316 317 319 321 322 323 326 326 326 328 326 323 323 317 302 289 283 283 277 270 267 272 284 291 284 277 276
212 212 208 207 210 217 223 229 233 240 247 252 258 266 273 272 265 262 264 269 275 281 284 284 284 283 283 285 289 293 295 296 300 304 310 315 318 320 320 321 322 324 326 326 327 329 324 320 322 319 306 292 282 277 274 270 267 270 284 293 284 276 276
210 211 208 208 211 217 224 229 235 242 247 252 258 266 270 266 261 261 263 267 273 278 281 283 284 283 283 285 287 289 293 297 300 303 308 314 319 322 321 321 323 324 326 327 328 330 326 322 324 321 310 298 283 274 271 271 272 274 284 293 287 279 279
207 210 209 209 212 217 224 230 237 243 248 252 259 266 266 261 258 259 261 265 270 274 278 281 282 282 282 284 285 289 294 298 299 303 308 313 319 321 320 320 322 324 325 326 327 331 332 332 334 331 317 302 285 274 273 275 279 281 284 289 289 284 283
206 209 209 210 213 218 224 231 238 243 248 252 260 265 261 259 259 259 260 264 268 272 276 279 279 280 282 284 286 290 296 300 301 304 308 314 319 320 319 319 321 323 325 325 327 333 337 337 338 335 318 302 287 280 282 281 281 284 285 285 284 282 282
205 208 209 212 214 219 225 231 238 243 247 253 260 263 259 257 258 258 259 262 266 270 273 276 277 279 282 284 287 292 297 300 302 306 310 314 318 319 318 318 321 325 325 326 328 334 337 335 338 338 324 307 299 289 287 286 283 283 285 284 278 276 277
204 207 210 212 214 219 225 232 238 242 248 254 261 262 257 254 253 255 259 261 264 268 271 274 276 278 281 285 288 292 297 300 302 305 310 313 316 317 316 318 322 326 326 327 330 334 336 335 340 346 341 330 323 306 294 292 288 287 286 278 271 273 277
204 206 209 211 215 221 226 232 238 242 249 255 260 260 256 253 252 254 257 258 261 266 269 272 273 277 281 286 289 292 297 301 302 305 309 312 314 314 315 319 323 326 325 326 330 332 335 335 338 346 347 340 330 317 305 298 293 290 284 271 266 273 280
203 206 208 211 216 222 227 233 238 242 249 255 258 257 253 252 252 254 255 256 259 263 266 269 270 276 282 286 290 294 299 300 301 304 307 309 311 311 314 320 323 324 325 325 327 330 332 332 334 338 338 336 331 323 314 304 296 294 289 281 277 280 284
202 204 207 211 217 223 228 234 238 243 249 254 257 254 251 250 252 254 255 255 257 260 263 266 269 275 281 286 292 297 299 299 299 301 303 305 307 309 315 321 323 324 324 322 323 327 329 329 331 334 331 329 329 325 319 311 304 301 298 294 290 288 288
199 202 206 211 217 223 229 234 239 244 250 255 256 252 249 250 251 254 255 254 256 259 263 266 269 274 281 287 294 298 298 298 297 298 300 303 305 309 315 320 322 323 322 320 321 322 325 326 328 330 329 326 325 321 318 314 307 302 297 294 292 290 289
196 201 206 211 218 223 228 234 239 245 251 254 253 249 247 249 251 253 253 255 258 261 264 267 269 274 280 287 293 296 297 299 298 298 300 302 304 307 313 317 320 322 320 320 320 321 323 324 325 326 326 326 324 319 316 311 302 296 290 289 289 287 286
195 201 207 212 218 222 228 234 240 246 251 252 249 246 246 248 251 252 254 256 259 263 266 268 271 276 281 287 292 295 298 300 299 299 299 299 302 305 310 314 318 320 320 321 323 324 323 323 324 324 324 323 321 317 313 308 302 297 290 286 286 284 284
197 203 208 212 216 221 228 234 240 247 251 250 247 244 245 247 250 251 254 255 257 261 264 267 272 277 282 286 292 295 298 298 296 296 296 297 299 302 306 311 315 318 320 322 324 325 325 325 325 326 327 325 323 319 314 308 303 298 293 288 286 284 284
202 206 209 212 216 222 228 234 240 246 248 247 245 243 244 247 249 250 251 250 251 255 258 262 269 276 280 285 289 293 295 293 292 293 294 295 297 300 303 307 311 314 316 318 321 323 324 325 326 328 329 329 326 322 317 313 307 300 295 290 288 287 286
208 209 210 213 217 222 229 234 239 244 245 244 242 241 242 245 247 247 247 248 249 251 253 258 266 273 277 281 286 290 291 291 291 292 292 293 296 298 301 304 307 309 311 314 316 318 320 323 326 328 330 330 327 323 318 314 310 305 300 296 293 291 290
211 213 212 213 217 222 228 233 238 242 243 241 239 238 241 247 249 244 243 249 253 251 252 258 265 272 277 281 285 289 290 291 292 292 292 294 295 295 297 299 302 304 306 309 312 314 317 322 325 328 329 331 329 324 320 316 312 309 306 303 300 298 296
211 216 216 215 217 222 226 231 237 239 239 238 236 237 242 249 249 244 245 253 256 254 255 260 266 270 274 280 285 289 290 292 293 293 293 294 294 293 294 296 298 300 302 305 308 310 314 319 323 327 329 332 332 329 324 320 316 313 311 309 307 304 303
210 217 220 219 218 220 224 230 234 235 235 235 233 235 242 246 247 248 252 255 254 254 256 260 264 266 270 277 283 287 289 291 292 292 293 293 292 292 293 294 295 296 298 301 303 306 310 315 321 324 328 331 332 332 329 325 321 318 314 312 310 308 307
205 215 221 222 218 218 222 226 231 232 233 233 231 234 239 241 244 248 251 252 252 253 255 257 260 264 269 276 281 285 287 289 289 290 291 290 291 292 292 293 293 295 296 297 300 303 307 312 317 321 325 328 330 331 330 327 324 321 318 315 312 310 309
199 210 221 223 219 217 219 223 229 232 232 231 232 234 238 241 244 246 247 250 253 254 254 256 259 263 268 274 279 283 285 286 286 287 289 290 292 293 293 293 294 295 294 295 297 301 304 308 312 316 321 324 326 327 328 326 325 322 320 317 314 311 308
197 206 219 223 219 217 218 222 228 231 231 232 233 236 239 243 248 249 249 251 254 256 258 260 261 263 265 270 277 281 282 283 284 286 288 291 293 293 293 294 295 295 293 294 296 299 302 305 308 312 317 320 321 322 323 322 320 319 317 315 311 308 305
197 202 215 221 218 217 218 221 226 228 229 231 234 237 239 242 248 250 248 249 252 257 261 263 263 263 263 268 273 277 279 281 284 286 289 291 293 293 294 295 295 294 293 293 294 296 299 302 304 308 312 314 314 316 316 316 316 315 314 312 309 306 303
200 200 210 215 217 218 218 220 223 225 227 229 233 235 235 240 247 248 247 249 253 257 260 262 262 263 264 267 271 274 277 280 283 286 289 292 293 294 294 294 294 293 292 291 292 294 297 299 301 304 307 308 310 312 314 316 317 316 315 313 311 308 307
198 197 205 211 216 219 218 218 220 223 224 228 232 233 233 239 245 247 250 254 257 259 260 261 263 265 265 267 270 273 277 280 284 287 289 291 292 294 294 294 294 293 292 291 291 293 295 297 299 301 303 305 308 311 315 317 318 318 317 316 314 312 310
193 195 204 211 216 219 218 218 220 221 223 226 230 232 233 238 243 247 251 254 257 259 261 263 266 268 268 269 271 274 278 282 285 287 289 290 292 293 293 293 294 293 292 291 291 291 293 295 296 297 300 303 308 312 315 317 317 318 318 317 316 315 313
191 198 206 212 217 219 218 219 221 221 222 224 228 231 233 238 243 247 251 253 256 259 262 265 268 269 269 270 273 276 280 283 285 286 288 289 290 291 293 294 294 294 293 291 290 290 291 292 293 295 299 303 308 311 314 315 316 316 316 315 314 314 313
193 201 208 213 217 218 218 220 222 223 222 223 227 232 235 240 245 249 252 255 257 261 264 267 269 269 270 272 275 278 281 283 284 285 286 287 288 290 292 294 295 295 293 292 292 291 290 290 291 295 299 304 308 310 311 311 311 312 312 311 310 310 311
195 201 206 209 213 217 218 219 221 223 224 226 229 234 238 243 248 252 255 258 261 264 266 267 268 269 271 274 276 278 281 282 283 284 285 286 288 290 292 294 295 295 294 293 294 294 293 291 292 295 300 304 307 308 309 308 308 308 308 308 308 308 308
195 197 198 199 207 214 216 217 220 222 225 229 233 237 242 246 249 252 255 257 260 262 263 265 267 270 273 275 277 278 280 280 281 282 283 286 289 291 293 295 297 296 295 296 297 298 297 295 295 298 302 304 305 307 308 306 305 305 306 307 308 306 304